SARAL

Last updated on Thu Nov 21 2024 00:02:27 GMT+0000 (Coordinated Universal Time)

1 39086U 13009A 24325.54022434 .00000269 00000+0 11515-3 0 9991 2 39086 98.5492 148.5381 0002090 152.6425 207.4869 14.32585130613469
UTC large
Height (km)
Speed (km/s)
/
Latitude / Longitude
Inclination (degrees)
Orbital Period (minutes)
Azimuth
Elevation
Range (km)
Doppler Factor

Next 0 passes for location: London (51.5072 / 0.1276)

Sorry there are no passes over London.